Location: Codford Saint Peter
(51.1597°N, 2.0531°W)
Time: 13:13:45
(UTC+00:00)

NOSS 8 (E) - Pass Details

Date: 18 September 2020
Orbit: 385 x 1787 km, 63.3° (Epoch: 25 October)

Event Time Altitude Azimuth Distance (km) Brightness Sun altitude
Rises 19:07:30 0° 222° (SW) 2,438 8.5 -9.0°
Reaches altitude 10° 19:09:40 10° 222° (SW) 1,484 7.4 -9.3°
Maximum altitude 19:12:48 86° 136° (SE) 396 4.0 -9.8°
Drops below altitude 10° 19:15:50 10° 45° (NE) 1,435 6.7 -10.3°
Enters shadow 19:17:50 - 45° (NE) 2,315 7.7 -10.6°
